This demonstration page uses our WeatherBlox Daily Observations layout. Learn more.

Left ArrowRight Arrow

39.01783, -85.05884

Hourly Observations for June 12, 2017

Temp ( °F °C ) Dew Point ( °F °C ) Humidity (%) Winds ( mph kmh ) Pressure ( in mb ) Visibility ( mi km ) Precip ( " mm )
12:52 am 00:52 Mostly Clear 71 21.7 62 16.7 73 73 S 7 11 30.05 1018 10 16 N/A
1:52 am 01:52 Mostly Clear 70 21.1 62 16.7 76 76 S 7 11 30.03 1017 10 16 N/A
2:52 am 02:52 Clear 70 21.1 61 16.1 73 73 SSW 6 9 30.04 1017 10 16 N/A
3:52 am 03:52 Mostly Cloudy 69 20.6 61 16.1 76 76 SSE 3 6 30.05 1018 10 16 N/A
4:52 am 04:52 Partly Cloudy 67 19.4 62 16.7 84 84 SSE 5 7 30.06 1018 10 16 N/A
5:52 am 05:52 Partly Cloudy 67 19.4 62 16.7 84 84 S 7 11 30.07 1018 10 16 N/A
6:52 am 06:52 Partly Cloudy 69 20.6 63 17.2 81 81 S 7 11 30.09 1019 10 16 N/A
7:52 am 07:52 Partly Cloudy 72 22.2 64 17.8 76 76 SSW 8 13 30.10 1019 10 16 N/A
8:52 am 08:52 Partly Cloudy 76 24.4 67 19.4 74 74 SW 7 11 30.11 1020 10 16 N/A
9:52 am 09:52 Partly Cloudy 79 26.1 68 20 69 69 VRB 6 9 30.11 1020 10 16 N/A
10:52 am 10:52 Partly Cloudy 83 28.3 69 20.6 63 63 SW 7 11 30.09 1019 10 16 N/A
11:52 am 11:52 Partly Cloudy 85 29.4 68 20 57 57 SSW 7 11 30.09 1019 10 16 N/A
12:52 pm 12:52 Partly Cloudy 87 30.6 67 19.4 51 51 SW 9 15 30.07 1018 10 16 N/A
1:52 pm 13:52 Mostly Cloudy 87 30.6 68 20 53 53 W 12 19 30.06 1018 10 16 N/A
2:52 pm 14:52 Partly Cloudy 89 31.7 66 18.9 47 47 W 9 15 30.03 1017 10 16 N/A
3:52 pm 15:52 Partly Cloudy 90 32.2 64 17.8 42 42 SW 9 15 30.02 1017 10 16 N/A
4:52 pm 16:52 Partly Cloudy with Nearby Thunderstorms 89 31.7 66 18.9 47 47 SW 13 20 30.00 1016 10 16 N/A
5:00 pm 17:00 Partly Cloudy with Thunderstorms 87 30.6 67 19.4 51 51 SSW 13 20 29.97 1015 10 16 N/A
5:16 pm 17:16 Mostly Cloudy 81 27.2 66 18.9 61 61 W 17 28 30.00 1016 10 16 N/A
5:52 pm 17:52 Mostly Cloudy 80 26.7 67 19.4 64 64 S 5 7 30.00 1016 10 16 N/A
6:52 pm 18:52 Partly Cloudy 81 27.2 68 20 65 65 SSW 5 7 29.98 1015 10 16 N/A
7:52 pm 19:52 Mostly Cloudy 82 27.8 69 20.6 65 65 S 5 7 29.98 1015 10 16 N/A
8:52 pm 20:52 Partly Cloudy 80 26.7 69 20.6 69 69 S 7 11 29.97 1015 10 16 N/A
9:52 pm 21:52 Mostly Clear 78 25.6 69 20.6 74 74 S 7 11 29.98 1015 10 16 N/A
10:52 pm 22:52 Clear 78 25.6 70 21.1 76 76 S 7 11 30.00 1016 10 16 N/A
11:52 pm 23:52 Clear 76 24.4 70 21.1 82 82 SSW 6 9 30.02 1017 10 16 N/A

Powered by AerisWeather